Wind_Speed
10 9 7 7 6 5 6 6 6 7 8 9 9 10 10 11 13 14 14 16 17 19 18 19 19 19 20 20 20 21 21 22 23 25 26 26 27 28 28 27 27 28 27 26
10 8 8 8 7 6 6 6 8 9 9 10 11 11 11 13 13 14 16 17 18 20 19 19 19 19 19 20 21 21 22 23 24 25 26 27 28 28 28 27 27 27 26 26
8 8 8 8 6 6 7 8 8 9 9 11 13 12 12 13 14 16 17 18 19 20 20 20 20 20 20 20 21 21 22 23 25 26 26 27 27 28 27 26 26 26 26 26
9 8 7 6 6 7 9 10 11 10 11 12 13 14 13 14 15 17 18 19 20 20 21 21 20 21 21 21 22 22 22 23 25 26 26 27 27 27 27 26 26 26 26 26
7 7 7 7 7 8 9 11 12 11 12 13 14 15 14 14 15 16 18 19 19 20 20 21 22 21 22 22 22 23 23 24 24 25 27 27 27 27 27 25 25 25 25 26
6 5 6 7 8 9 10 11 11 12 13 14 15 16 16 15 15 16 17 19 20 20 21 22 22 22 22 22 23 23 23 24 24 26 27 27 27 27 27 26 25 25 24 24
6 6 7 7 8 9 10 11 12 13 13 14 15 16 16 16 17 17 18 20 20 21 21 21 22 22 23 23 23 23 23 24 25 26 26 26 27 27 27 26 25 24 24 23
8 7 8 8 9 10 11 12 13 14 15 15 15 15 16 17 18 18 19 19 20 20 21 21 22 22 21 22 23 23 23 23 25 25 26 26 26 27 26 24 23 23 22 22
9 9 9 10 10 11 12 13 14 15 16 17 16 16 17 17 18 19 19 20 20 20 20 20 21 20 20 21 22 22 22 22 24 25 26 26 26 25 24 23 22 22 20 20
11 11 11 11 12 12 14 15 16 17 18 18 17 17 18 19 19 20 20 21 20 20 20 19 19 19 20 20 20 20 21 21 23 25 25 25 24 22 22 22 21 20 18 19
12 12 12 13 13 13 14 15 16 17 18 18 19 19 19 19 19 20 20 20 20 20 19 19 18 18 19 19 19 20 20 21 22 23 23 23 22 21 21 20 19 18 18 18
13 14 14 14 14 15 15 15 16 17 18 19 19 19 19 20 20 20 20 20 19 18 17 16 17 18 19 19 18 18 19 20 21 20 21 21 20 20 20 19 18 17 17 18
15 16 16 16 16 16 17 17 17 19 19 20 20 20 20 20 20 20 20 19 19 17 16 15 16 17 18 17 17 17 18 18 18 18 19 19 19 19 18 18 18 17 17 17
17 18 18 18 17 17 17 18 19 20 20 21 20 20 19 20 20 20 19 18 17 16 15 14 15 15 16 16 16 17 17 17 17 17 18 18 19 18 18 18 17 17 16 17
19 19 19 19 19 19 19 19 20 20 20 21 20 19 19 20 20 19 18 16 16 15 14 13 14 15 15 16 16 16 16 16 16 16 17 18 19 18 18 17 17 17 17 17
21 21 21 21 21 21 20 20 21 21 21 21 20 20 20 20 19 17 17 16 16 14 13 13 14 14 15 16 16 16 16 16 16 16 17 18 18 17 17 17 18 18 18 18
23 23 23 23 22 23 22 21 20 20 20 21 20 19 19 18 17 16 16 15 16 15 14 14 14 15 16 16 17 16 16 16 16 17 17 17 17 17 17 18 19 18 18 18
24 24 24 24 23 24 22 21 21 21 20 20 20 19 19 17 16 15 15 15 15 15 14 15 16 15 15 15 15 15 15 16 16 17 17 17 18 18 19 19 19 19 18 17
26 25 25 25 25 24 22 22 22 22 21 20 20 20 19 18 17 16 15 15 15 15 14 15 15 15 15 15 14 15 15 15 15 16 17 17 17 17 18 18 18 18 18 17
27 27 27 27 27 26 24 23 23 23 22 21 21 20 19 18 17 16 16 16 16 16 15 14 14 15 15 15 14 14 14 15 15 15 16 16 16 17 17 18 19 19 18 17
28 28 28 28 28 27 25 24 24 24 23 22 21 20 19 19 18 17 16 16 16 16 15 15 15 16 15 14 14 14 14 14 14 14 15 15 16 16 17 18 18 18 18 17
29 30 29 29 29 29 27 26 25 24 24 23 22 21 21 20 20 19 18 17 17 17 16 17 17 16 16 14 14 14 14 13 14 14 14 15 16 17 17 17 17 17 16 17
31 31 31 31 30 30 30 28 27 26 26 26 25 23 22 21 20 19 19 18 18 17 17 18 18 16 16 15 14 14 14 13 13 14 15 16 16 17 16 16 16 15 16 16
31 31 32 32 32 31 31 29 28 28 27 27 25 24 23 21 21 20 19 19 19 19 19 19 18 17 17 16 15 15 14 14 14 14 15 15 16 16 16 16 15 15 15 16
32 32 32 33 33 32 31 31 30 29 29 27 26 25 24 23 22 21 21 22 21 21 20 20 19 18 17 16 15 15 15 14 13 13 14 14 15 15 16 15 15 15 15 16
32 32 32 32 32 33 32 31 31 30 29 27 26 26 25 25 24 24 23 22 22 21 21 20 19 18 17 16 15 15 15 14 13 13 13 14 14 14 15 14 14 14 15 16
Wind_Direction
189 194 202 206 215 233 247 255 265 274 277 280 284 289 286 288 294 296 297 299 299 301 300 297 298 300 299 298 301 302 302 302 304 305 307 309 309 311 310 308 306 303 301 299
187 193 205 214 225 249 263 269 273 274 278 284 287 286 288 291 294 297 300 301 299 302 303 301 299 300 301 300 300 300 302 304 307 309 309 310 311 311 312 310 308 306 303 301
200 200 209 219 234 261 279 282 278 275 279 286 288 289 291 293 293 298 302 305 304 304 304 303 304 305 305 303 302 302 304 307 309 310 311 312 312 313 313 313 311 309 306 305
214 216 226 238 253 265 277 283 285 284 288 291 295 294 294 294 295 300 305 307 309 308 309 309 308 308 307 305 302 304 305 307 309 311 313 314 315 315 315 314 312 310 308 307
214 229 240 253 263 269 276 280 284 287 293 295 297 293 297 299 298 300 305 306 307 309 309 309 309 308 308 307 306 308 309 310 312 314 316 316 317 316 315 314 313 312 310 309
220 235 251 262 264 272 277 280 288 291 294 296 299 296 297 301 302 301 305 308 309 308 308 307 306 306 308 308 307 307 310 312 311 313 314 315 315 315 314 314 313 313 313 312
232 249 261 268 271 280 284 289 297 299 301 303 302 299 301 304 305 305 306 311 312 309 306 306 306 306 308 308 308 309 310 311 312 314 314 315 315 314 315 315 315 315 315 314
243 252 266 273 276 284 289 296 301 305 307 310 304 302 306 308 309 308 308 311 313 309 305 304 304 305 308 309 309 311 311 311 314 316 316 317 316 315 316 315 316 315 315 316
255 261 269 276 280 282 286 291 298 301 303 306 306 306 307 309 311 311 310 310 312 313 309 305 307 308 311 312 312 313 313 314 315 316 317 318 318 318 318 317 316 315 315 320
261 265 270 278 282 282 286 291 295 299 302 305 308 308 310 312 312 312 312 311 312 313 312 312 312 314 317 317 319 319 318 317 318 319 320 321 322 322 322 319 318 317 318 323
266 271 273 278 280 283 285 288 293 296 299 303 308 312 314 315 315 315 315 315 315 314 312 313 316 317 320 321 321 321 322 322 325 327 328 328 328 328 326 325 325 323 321 324
266 272 275 277 279 281 284 288 292 296 298 301 305 311 313 313 315 315 318 320 320 316 314 316 318 320 321 322 322 324 326 327 330 333 336 336 337 335 334 335 334 331 328 328
262 268 273 274 275 278 281 286 290 294 296 299 303 308 310 310 314 316 318 320 320 318 316 316 319 323 326 327 327 328 330 333 336 339 341 342 342 342 342 342 340 338 334 335
262 266 270 273 276 278 279 283 288 291 293 297 301 305 308 310 311 315 318 319 321 321 319 321 325 329 333 334 335 335 335 338 339 341 343 345 348 349 350 348 347 344 340 338
262 264 268 271 273 274 276 278 283 288 292 295 299 302 306 309 311 314 316 319 321 322 322 322 325 329 333 335 338 339 337 339 341 344 346 349 351 353 354 354 350 348 347 345
260 263 266 269 271 272 274 278 283 285 288 290 293 297 303 307 308 310 312 315 317 319 321 323 325 327 330 333 336 339 340 341 343 344 347 350 352 352 353 353 352 350 349 349
259 263 266 269 270 271 273 279 282 285 287 288 290 296 301 304 305 306 307 309 312 311 313 318 321 324 328 331 334 337 337 341 343 345 348 351 352 352 352 352 353 352 349 348
261 262 265 268 269 269 275 277 279 282 284 286 287 291 296 301 302 301 300 302 304 305 307 310 315 319 323 329 333 335 338 341 345 346 347 347 348 349 350 351 352 352 352 351
262 264 267 269 268 269 272 274 276 279 280 283 286 290 293 297 298 297 296 295 295 297 299 306 313 318 321 325 328 332 336 339 342 345 347 348 348 349 350 352 352 353 353 352
261 264 266 268 269 270 273 274 275 277 278 282 285 288 289 291 292 293 292 292 291 293 297 303 309 314 317 320 322 327 331 333 337 342 345 349 350 349 350 351 353 354 354 354
261 262 264 266 268 270 272 273 275 276 278 280 282 283 285 288 290 288 288 289 290 291 295 300 304 307 308 310 314 319 323 328 334 338 341 343 346 348 348 349 350 353 356 357
261 261 261 263 264 265 269 271 272 274 274 277 279 280 283 286 287 286 284 285 289 291 292 297 299 301 302 303 308 312 313 319 327 333 336 339 340 342 345 346 349 352 356 357
262 261 261 261 262 263 264 267 268 269 270 273 277 279 280 282 283 284 283 283 284 286 289 293 296 298 300 300 302 307 310 314 320 325 329 331 334 337 340 343 346 350 352 352
262 261 261 260 260 261 262 263 264 265 268 272 273 276 277 278 280 281 281 281 283 285 287 290 294 298 298 299 299 303 308 313 316 319 323 327 330 333 335 339 343 346 348 349
261 261 261 260 260 260 260 261 263 265 269 272 272 274 275 276 277 280 281 282 283 283 283 285 290 293 293 294 296 299 303 307 311 315 319 324 328 330 332 334 337 342 346 348
261 261 260 259 258 258 259 260 262 263 265 267 268 271 273 275 276 278 281 282 281 280 281 282 284 285 287 289 293 295 295 302 306 311 315 318 322 325 329 333 336 339 343 346
Height
5844 5848 5849 5850 5851 5852 5852 5852 5852 5852 5852 5851 5850 5850 5849 5848 5847 5846 5845 5843 5841 5839 5836 5834 5832 5830 5828 5826 5825 5823 5821 5819 5817 5815 5812 5809 5806 5802 5798 5794 5791 5788 5785 5782
5846 5848 5849 5850 5850 5851 5851 5852 5851 5851 5850 5849 5848 5848 5847 5846 5845 5844 5842 5840 5838 5835 5832 5830 5828 5825 5823 5822 5820 5818 5816 5814 5811 5809 5806 5803 5800 5796 5792 5789 5785 5782 5778 5775
5847 5849 5848 5849 5850 5850 5850 5850 5849 5849 5848 5847 5847 5846 5845 5844 5843 5841 5839 5837 5834 5831 5829 5826 5824 5821 5819 5817 5815 5813 5811 5808 5806 5803 5800 5797 5793 5790 5786 5783 5779 5775 5772 5769
5847 5848 5848 5849 5849 5849 5849 5848 5847 5847 5846 5845 5845 5844 5843 5842 5840 5838 5836 5833 5831 5828 5825 5823 5820 5817 5815 5813 5810 5808 5805 5803 5800 5797 5794 5791 5788 5784 5781 5777 5773 5770 5767 5763
5847 5848 5848 5848 5848 5848 5847 5847 5846 5845 5844 5843 5842 5841 5842 5839 5837 5835 5833 5830 5828 5825 5822 5819 5816 5814 5811 5808 5805 5803 5800 5797 5794 5791 5788 5785 5782 5778 5775 5772 5768 5765 5761 5758
5846 5847 5847 5846 5846 5846 5846 5845 5844 5843 5842 5842 5841 5839 5838 5837 5834 5832 5830 5827 5824 5821 5818 5815 5813 5809 5806 5804 5801 5798 5795 5793 5789 5786 5783 5779 5776 5773 5769 5766 5763 5759 5756 5752
5845 5846 5845 5845 5845 5845 5844 5844 5843 5841 5840 5839 5838 5836 5836 5834 5831 5829 5826 5824 5820 5817 5814 5811 5808 5805 5802 5799 5796 5793 5790 5787 5784 5781 5777 5774 5770 5767 5763 5760 5757 5754 5750 5747
5843 5844 5844 5844 5843 5843 5842 5842 5841 5839 5838 5837 5835 5833 5833 5830 5828 5825 5823 5820 5817 5814 5810 5807 5804 5801 5798 5795 5792 5789 5786 5783 5779 5776 5772 5768 5764 5761 5757 5754 5751 5748 5745 5742
5841 5842 5842 5842 5841 5841 5840 5839 5839 5837 5835 5834 5832 5831 5830 5827 5825 5822 5819 5816 5813 5809 5806 5803 5799 5796 5794 5791 5787 5784 5781 5778 5774 5771 5767 5763 5759 5755 5751 5748 5745 5743 5740 5737
5839 5840 5840 5839 5839 5838 5838 5836 5835 5834 5832 5830 5829 5828 5826 5824 5821 5818 5815 5812 5809 5805 5802 5799 5796 5793 5790 5786 5783 5780 5776 5774 5770 5766 5762 5758 5754 5751 5747 5744 5741 5739 5736 5733
5836 5836 5837 5836 5835 5835 5834 5834 5832 5830 5829 5827 5825 5826 5823 5820 5817 5814 5812 5808 5805 5801 5798 5795 5792 5789 5786 5782 5779 5776 5773 5770 5767 5762 5758 5755 5751 5747 5744 5741 5738 5735 5733 5730
5833 5833 5832 5832 5832 5831 5831 5830 5829 5828 5826 5824 5822 5824 5819 5817 5814 5811 5808 5805 5801 5798 5795 5792 5789 5786 5783 5779 5776 5774 5771 5767 5764 5760 5756 5752 5749 5745 5742 5738 5735 5733 5730 5727
5829 5829 5829 5829 5830 5829 5827 5826 5825 5824 5822 5820 5819 5820 5816 5813 5811 5808 5805 5801 5798 5795 5792 5789 5787 5783 5780 5777 5774 5771 5768 5765 5762 5758 5755 5751 5747 5744 5740 5737 5734 5731 5728 5725
5825 5825 5825 5826 5825 5824 5823 5822 5821 5820 5818 5817 5816 5814 5812 5810 5807 5805 5802 5799 5795 5792 5790 5787 5785 5782 5779 5776 5773 5769 5766 5763 5760 5757 5754 5750 5746 5742 5739 5736 5733 5730 5726 5723
5820 5820 5820 5820 5820 5819 5819 5818 5817 5816 5815 5813 5812 5810 5808 5806 5804 5801 5798 5796 5793 5790 5788 5785 5783 5780 5778 5774 5771 5768 5765 5762 5759 5756 5753 5749 5745 5742 5738 5735 5732 5729 5725 5721
5815 5815 5815 5815 5815 5814 5814 5814 5813 5812 5810 5809 5808 5807 5805 5802 5800 5798 5796 5793 5791 5788 5786 5784 5781 5779 5776 5773 5770 5767 5764 5761 5758 5755 5752 5748 5745 5741 5738 5734 5731 5727 5724 5720
5810 5810 5810 5810 5809 5808 5809 5809 5808 5807 5806 5805 5803 5803 5801 5798 5796 5795 5793 5791 5789 5786 5784 5782 5780 5777 5774 5771 5768 5766 5763 5760 5757 5754 5750 5747 5744 5740 5737 5734 5730 5727 5723 5719
5804 5804 5804 5804 5804 5803 5806 5804 5803 5802 5801 5800 5799 5798 5796 5795 5793 5791 5790 5788 5786 5784 5782 5780 5777 5775 5772 5770 5767 5764 5762 5759 5756 5753 5749 5746 5743 5740 5737 5733 5730 5726 5722 5718
5798 5798 5798 5798 5797 5797 5799 5799 5798 5797 5796 5796 5794 5793 5792 5790 5789 5788 5786 5785 5783 5781 5779 5777 5775 5773 5771 5768 5765 5763 5760 5757 5755 5752 5749 5745 5742 5739 5736 5732 5729 5725 5721 5718
5791 5791 5791 5791 5790 5790 5794 5793 5792 5792 5791 5791 5789 5788 5787 5786 5785 5785 5783 5781 5779 5778 5776 5774 5772 5770 5768 5766 5763 5761 5759 5756 5753 5751 5748 5745 5741 5738 5735 5732 5728 5725 5721 5718
5783 5783 5783 5783 5783 5783 5786 5786 5786 5786 5786 5785 5784 5783 5782 5781 5781 5780 5778 5777 5775 5774 5773 5771 5769 5767 5765 5763 5761 5759 5757 5754 5752 5749 5747 5744 5741 5738 5735 5731 5728 5724 5721 5717
5774 5775 5776 5776 5776 5779 5779 5779 5779 5779 5779 5778 5777 5777 5776 5776 5775 5774 5773 5772 5771 5770 5769 5767 5766 5764 5762 5760 5758 5756 5754 5752 5750 5747 5745 5743 5740 5737 5734 5731 5727 5724 5721 5718
5765 5767 5767 5769 5771 5770 5771 5771 5771 5771 5771 5771 5771 5771 5770 5770 5769 5768 5768 5767 5767 5766 5764 5763 5761 5760 5758 5756 5755 5753 5751 5749 5747 5745 5743 5741 5738 5735 5732 5729 5726 5723 5720 5717
5756 5757 5758 5759 5761 5761 5762 5763 5763 5763 5764 5764 5764 5764 5764 5764 5763 5763 5762 5762 5761 5760 5759 5758 5757 5756 5754 5753 5751 5750 5748 5747 5745 5743 5741 5738 5736 5733 5730 5728 5725 5722 5719 5716
5747 5747 5748 5749 5751 5752 5753 5754 5755 5756 5756 5757 5757 5757 5757 5757 5757 5756 5756 5756 5755 5755 5754 5753 5752 5751 5750 5749 5747 5746 5745 5743 5741 5740 5738 5736 5733 5731 5728 5726 5723 5721 5718 5715
5737 5738 5739 5740 5742 5743 5745 5745 5746 5747 5748 5749 5749 5750 5750 5750 5750 5750 5749 5749 5749 5748 5748 5747 5747 5746 5746 5744 5743 5742 5741 5740 5738 5737 5735 5733 5731 5729 5726 5724 5722 5719 5716 5713